Weather in Clermont-Ferrand

France     45˚46′18″N   3˚05′21″E
temp.,
°C
wind,
m/s
gust,
m/s
humid.,
%
clouds,
%
prec.,
mm/h
press.,
hPa
HPBL,
m
27 november, fri
fri2701:00+7˚s238297 0.0 102085
04:00+6˚ssw238886 0.0 101873
07:00+8˚ssw118290 0.0 101822
10:00+9˚sse118198 0.0 101879
13:00+12˚ese126870 0.0 1016568
16:00+11˚se247729 0.0 1014267
19:00+7˚ssw228719 0.0 101529
22:00+6˚s22880 0.0 101629
28 november, sat
sat2801:00+5˚s22920 0.0 101528
04:00+5˚s229255 0.0 101428
07:00+4˚sse129268 0.0 101328
10:00+7˚sse127775 0.0 1013138
13:00+11˚ese245786 0.0 1012363
16:00+9˚ene126823 0.0 101167
19:00+5˚w117555 0.0 101322
22:00+5˚nnw127073 0.0 101522
29 november, sun
sun2901:00+3˚nw127475 0.0 101523
04:00+2˚wnw11723 0.0 101622
07:00+1˚wsw01712 0.0 101622
10:00+4˚ene01660 0.0 1018120
13:00+8˚ne22550 0.0 1017321
16:00+5˚ne12710 0.0 1018202
19:00+1˚ne01900 0.0 102024
22:00s01900 0.0 102224
30 november, mon
mon3001:00s11820 0.0 102322
04:00−1˚ssw11750 0.0 102322
07:00−1˚ene01800 0.0 102422
10:00+2˚e11680 0.0 1025148
13:00+5˚ene22531 0.0 1025345
16:00+3˚ne23650 0.0 1025287
19:00−2˚ne01870 0.0 102725
22:00−2˚se01820 0.0 102924
1 december, tue
tue101:00−1˚ssw01700 0.0 103022
04:00−1˚se01560 0.0 102922
07:00−1˚s014413 0.0 102922
10:00+3˚ene013917 0.0 102949
13:00+7˚ne234129 0.0 1027336
16:00+4˚ne126095 0.0 102637
19:00n117498 0.0 102725
22:00w0183100 0.0 102722